Location: Shannon
(40.5500°S, 175.4167°E)
Time: 19:34:01
(UTC+00:00)

Meteor 1-12 Rocket - Pass Details

Date: 17 November 2025
Orbit: 854 x 924 km, 81.2° (Epoch: 14 December)

Event Time Altitude Azimuth Distance (km) Brightness Sun altitude
Exits shadow 15:22:43 13° 350° (N) 2,366 6.1 -14.5°
Maximum altitude 15:28:03 85° 261° (W) 898 4.3 -13.7°
Drops below altitude 10° 15:33:52 10° 172° (S) 2,547 7.4 -12.9°
Sets 15:36:18 0° 171° (S) 3,484 8.2 -12.5°
